Location: Bougoudala
(13.2282°N, 4.9477°W)
Time: 11:23:10
(UTC+00:00)

SYLDA PLATFORM - Pass Details

Date: 29 January 2020
Orbit: 568 x 35534 km, 7.5° (Epoch: 26 October)

Event Time Altitude Azimuth Distance (km) Brightness Sun altitude
Rises 19:41:15 0° 263° (W) 4,809 9.7 -20.0°
Reaches altitude 10° 19:45:32 10° 256° (WSW) 2,671 8.0 -21.0°
Maximum altitude 19:50:01 39° 185° (S) 893 4.5 -22.1°
Enters shadow 19:50:44 34° 154° (SSE) 941 4.3 -22.3°
